Waarnemingen

Advertentie
Mijn weer
Santiago de Compostela/Labacolla, Spanje (8042): temperatuur & dauwpunt: 12.02.2019 01:00:00 - 18.02.2019 01:00:00 (CET)Santiago de Compostela/Labacolla, Spanje (8042): windsnelheid: 12.02.2019 01:00:00 - 18.02.2019 01:00:00 (CET)Santiago de Compostela/Labacolla, Spanje (8042): windrichting: 12.02.2019 01:00:00 - 18.02.2019 01:00:00 (CET)Santiago de Compostela/Labacolla, Spanje (8042): luchtdruk: 12.02.2019 01:00:00 - 18.02.2019 01:00:00 (CET)Santiago de Compostela/Labacolla, Spanje (8042): zicht: 12.02.2019 01:00:00 - 18.02.2019 01:00:00 (CET)
Datum & Tijd tt [°C] td [°C] ff [km/u] ff [kn] dd ppp [hPa] vv [km]
18.02.2019 01:00:00 6,4 6,4 0 0 N 1019,3 10
18.02.2019 00:00:00 6,5 6,5 0 0 N 1019,6 6
17.02.2019 23:00:00 6,6 6,6 13 7 N 1019,3 4,3
17.02.2019 22:00:00 6,7 6,7 9 5 N 1019,4 6
17.02.2019 21:00:00 6,9 6,9 0 0 N 1019,6 10
17.02.2019 20:00:00 6,9 6,8 2 1 O 1019,3 16
17.02.2019 19:00:00 6,9 6,7 8 4 N 1019,0 15
17.02.2019 18:00:00 7,5 6,8 22 12 NW 1018,4 10
17.02.2019 17:00:00 12,1 8,2 13 7 ZZW 1017,1 17
17.02.2019 16:00:00 12,2 8,5 11 6 ZZW 1017,3 30
17.02.2019 15:00:00 11,8 8,1 11 6 ZZW 1018,0 15
17.02.2019 14:00:00 11,3 7,8 11 6 ZZW 1018,6 16
17.02.2019 13:00:00 10,5 7,0 13 7 ZZW 1019,6 30
17.02.2019 12:00:00 10,3 6,3 13 7 ZW 1019,9 18
17.02.2019 11:00:00 10,1 5,7 9 5 ZZW 1020,1 19
17.02.2019 10:00:00 9,9 5,2 11 6 ZZW 1020,1 30
17.02.2019 09:00:00 9,2 4,6 9 5 ZW 1020,1 25
17.02.2019 08:00:00 7,7 4,1 8 4 Z 1019,8 30
17.02.2019 07:00:00 8,0 3,8 8 4 Z 1019,9 30
17.02.2019 06:00:00 8,5 4,1 8 4 ZZW 1019,7 23
17.02.2019 05:00:00 9,5 4,1 13 7 ZZW 1019,6 29
17.02.2019 04:00:00 9,7 3,8 8 4 ZZW 1019,8 30
17.02.2019 03:00:00 9,8 3,7 13 7 Z 1020,0 30
17.02.2019 02:00:00 9,6 4,0 13 7 ZZW 1020,3 28
17.02.2019 01:00:00 9,3 3,9 8 4 ZZW 1020,6 30
17.02.2019 00:00:00 9,5 4,3 9 5 ZZW 1020,8 21
16.02.2019 23:00:00 8,2 5,6 9 5 Z 1021,5 13
16.02.2019 22:00:00 10,0 6,5 15 8 ZZW 1021,6 25
16.02.2019 21:00:00 10,0 3,9 9 5 Z 1021,3 23
16.02.2019 20:00:00 12,0 3,2 15 8 ZW 1020,9 25
16.02.2019 19:00:00 13,9 3,4 22 12 WZW 1020,2 25
16.02.2019 18:00:00 17,3 6,2 8 4 W 1019,2 30
16.02.2019 17:00:00 18,5 5,2 8 4 ZW 1019,1 30
16.02.2019 16:00:00 18,5 4,5 13 7 WZW 1019,7 40
16.02.2019 15:00:00 18,2 3,7 13 7 ZW 1020,6 30
16.02.2019 14:00:00 17,9 5,0 11 6 ZZW 1021,6 40
16.02.2019 13:00:00 17,2 5,9 8 4 ZZW 1022,6 40
16.02.2019 12:00:00 15,5 5,3 4 2 ZZO 1023,3 30
16.02.2019 11:00:00 12,8 5,1 4 2 Z 1024,0 30
16.02.2019 10:00:00 10,7 3,8 8 4 Z 1024,4 40
16.02.2019 09:00:00 7,8 2,5 9 5 Z 1024,7 30
16.02.2019 08:00:00 7,9 2,0 5 3 ZZO 1024,2 10
16.02.2019 07:00:00 7,4 1,9 4 2 OZO 1024,5 9
16.02.2019 06:00:00 6,0 3,3 0 0 N 1024,9 30
16.02.2019 05:00:00 8,1 2,7 4 2 OZO 1024,9 30
16.02.2019 04:00:00 3,9 3,2 0 0 N 1026,3 20
16.02.2019 03:00:00 7,9 5,4 4 2 ZO 1025,9 16
16.02.2019 02:00:00 6,1 4,5 4 2 WNW 1027,2 16
16.02.2019 01:00:00 8,6 6,0 0 0 N 1026,9 25
16.02.2019 00:00:00 9,7 6,2 2 1 Z 1027,1 24
15.02.2019 23:00:00 10,1 6,1 0 0 N 1027,2 22
15.02.2019 22:00:00 9,0 5,0 8 4 WNW 1027,1 25
15.02.2019 21:00:00 10,2 5,8 4 2 NW 1026,5 22
15.02.2019 20:00:00 11,5 6,4 8 4 WNW 1026,1 30
15.02.2019 19:00:00 12,0 6,4 8 4 W 1025,6 35
15.02.2019 18:00:00 15,1 5,9 4 2 ZZW 1025,0 30
15.02.2019 17:00:00 16,1 5,5 8 4 WZW 1024,9 30
15.02.2019 16:00:00 16,4 4,8 13 7 ZW 1025,1 35
15.02.2019 15:00:00 16,5 4,9 15 8 WZW 1025,6 30
15.02.2019 14:00:00 17,0 4,5 13 7 ZW 1025,8 35
15.02.2019 13:00:00 16,8 5,0 8 4 Z 1026,2 35
15.02.2019 12:00:00 15,1 4,9 9 5 ZZO 1026,0 30
15.02.2019 11:00:00 13,6 4,9 9 5 ZZO 1026,0 30
15.02.2019 10:00:00 11,7 3,3 8 4 ZO 1025,6 30
15.02.2019 09:00:00 9,9 2,3 8 4 ZO 1025,4 30
15.02.2019 08:00:00 10,2 2,1 5 3 ZZO 1024,8 30
15.02.2019 07:00:00 10,0 2,0 9 5 ZO 1024,4 25
15.02.2019 06:00:00 10,4 1,9 9 5 ZZO 1024,2 30
15.02.2019 05:00:00 10,3 1,8 11 6 ZO 1024,1 30
15.02.2019 04:00:00 10,1 1,7 5 3 ZO 1024,2 25
15.02.2019 03:00:00 10,7 1,9 9 5 ZO 1024,4 30
15.02.2019 02:00:00 11,6 2,1 9 5 ZZO 1024,4 30
15.02.2019 01:00:00 11,1 2,9 9 5 ZO 1024,4 25
15.02.2019 00:00:00 12,2 3,2 9 5 ZO 1024,0 30
14.02.2019 23:00:00 11,3 3,3 5 3 ZO 1023,9 30
14.02.2019 22:00:00 12,6 3,5 5 3 ZO 1023,5 30
14.02.2019 21:00:00 13,6 3,6 9 5 ZZO 1023,1 30
14.02.2019 20:00:00 13,8 4,6 4 2 ZO 1023,1 30
14.02.2019 19:00:00 15,7 6,9 5 3 ZZO 1022,2 40
14.02.2019 18:00:00 17,9 6,7 8 4 ZZW 1021,8 30
14.02.2019 17:00:00 19,1 4,7 13 7 ZO 1021,4 30
14.02.2019 16:00:00 19,0 5,1 13 7 ZO 1021,6 40
14.02.2019 15:00:00 18,6 4,6 16 9 ZZO 1022,3 30
14.02.2019 14:00:00 17,9 4,1 13 7 ZZO 1023,4 40
14.02.2019 13:00:00 16,6 4,4 13 7 ZO 1024,5 40
14.02.2019 12:00:00 14,4 4,2 13 7 ZO 1025,5 30
14.02.2019 11:00:00 12,1 2,8 9 5 ZO 1026,2 30
14.02.2019 10:00:00 10,0 1,6 11 6 ZO 1026,6 35
14.02.2019 09:00:00 7,8 0,7 9 5 ZO 1026,8 30
14.02.2019 08:00:00 7,4 0,8 5 3 ZO 1026,5 30
14.02.2019 07:00:00 7,6 1,0 5 3 ZO 1026,8 30
14.02.2019 06:00:00 7,8 1,2 5 3 ZO 1026,8 30
14.02.2019 05:00:00 7,3 1,6 8 4 ZZO 1026,8 30
14.02.2019 04:00:00 6,8 2,0 8 4 Z 1027,3 30
14.02.2019 03:00:00 7,9 3,4 9 5 ZO 1027,3 30
14.02.2019 02:00:00 6,8 4,1 4 2 Z 1027,9 30
14.02.2019 01:00:00 7,3 4,1 2 1 ZZO 1028,2 30
14.02.2019 00:00:00 7,5 4,8 5 3 Z 1028,4 30
13.02.2019 23:00:00 8,9 4,6 5 3 Z 1028,2 30
13.02.2019 22:00:00 10,3 4,6 4 2 ZZO 1028,1 30
13.02.2019 21:00:00 10,5 3,0 8 4 W 1028,0 30
13.02.2019 20:00:00 12,2 3,4 8 4 W 1027,8 30
13.02.2019 19:00:00 12,3 5,0 5 3 W 1027,5 35
13.02.2019 18:00:00 15,4 5,4 4 2 W 1027,0 30
13.02.2019 17:00:00 16,1 5,0 4 2 WNW 1027,0 30
13.02.2019 16:00:00 16,3 6,1 4 2 W 1027,2 30
13.02.2019 15:00:00 15,8 4,2 9 5 WZW 1027,6 30
13.02.2019 14:00:00 15,1 3,6 11 6 ZZW 1028,3 30
13.02.2019 13:00:00 14,1 4,0 4 2 Z 1029,3 35
13.02.2019 12:00:00 11,8 4,1 8 4 Z 1029,6 30
13.02.2019 11:00:00 9,9 3,0 8 4 ZZO 1029,8 30
13.02.2019 10:00:00 7,8 2,2 8 4 Z 1030,1 40
13.02.2019 09:00:00 5,2 1,2 9 5 Z 1030,2 30
13.02.2019 08:00:00 5,0 1,5 9 5 Z 1030,0 40
13.02.2019 07:00:00 5,7 1,1 9 5 Z 1029,9 30
13.02.2019 06:00:00 5,8 1,5 8 4 Z 1029,8 30
13.02.2019 05:00:00 6,1 2,0 8 4 ZZO 1029,8 30
13.02.2019 04:00:00 6,0 3,0 8 4 Z 1030,3 30
13.02.2019 03:00:00 6,6 3,6 4 2 ZZO 1030,3 30
13.02.2019 02:00:00 6,6 5,4 5 3 Z 1030,5 18
13.02.2019 01:00:00 7,0 5,3 4 2 Z 1030,4 25
13.02.2019 00:00:00 8,3 5,4 0 0 N 1030,3 24
12.02.2019 23:00:00 8,8 4,8 0 0 N 1030,3 25
12.02.2019 22:00:00 8,0 4,4 2 1 NW 1030,7 30
12.02.2019 21:00:00 9,3 5,2 5 3 WNW 1030,2 30
12.02.2019 20:00:00 10,8 4,7 2 1 ZZW 1029,8 30
12.02.2019 19:00:00 12,2 7,0 5 3 WZW 1029,3 30
12.02.2019 18:00:00 15,6 3,1 0 0 N 1028,6 30
12.02.2019 17:00:00 16,7 2,9 2 1 NO 1028,4 30
12.02.2019 16:00:00 16,3 4,8 2 1 O 1028,6 30
12.02.2019 15:00:00 15,1 4,4 4 2 NW 1029,3 30
12.02.2019 14:00:00 14,5 3,7 8 4 ZZO 1029,9 30
12.02.2019 13:00:00 12,6 3,8 5 3 ZZO 1030,9 30
12.02.2019 12:00:00 10,4 4,1 8 4 ZO 1031,5 30
12.02.2019 11:00:00 8,3 3,5 5 3 OZO 1032,0 30
12.02.2019 10:00:00 5,8 2,4 2 1 ZO 1032,3 30
12.02.2019 09:00:00 3,8 1,4 2 1 ZO 1032,4 30
12.02.2019 08:00:00 4,0 1,6 2 1 ZO 1032,1 30
12.02.2019 07:00:00 4,6 1,8 4 2 ZO 1032,0 30
12.02.2019 06:00:00 4,2 2,4 4 2 ZO 1032,2 30
12.02.2019 05:00:00 5,0 2,7 5 3 ZZO 1032,0 30
12.02.2019 04:00:00 4,1 2,4 4 2 ZZO 1032,4 30
12.02.2019 03:00:00 3,9 3,0 2 1 NO 1032,6 30
12.02.2019 02:00:00 3,6 2,3 2 1 NW 1032,6 27
12.02.2019 01:00:00 4,4 3,4 4 2 OZO 1032,2 30

tt = temperatuur
td = dauwpunt
ff = windsnelheid
dd = windrichting
ppp = luchtdruk
vv = zicht

Weerstations in de omgeving